• In Netherlands
  • List of Countries
  • For 7 days
  • Water Temperature
  • Satellite Maps
  • Weather Map
  • Weather Widgets
  • user-avatar
    Login

    Hourly Weather Malanje

    Today, 19 January, Friday

    Time Temperature Precipitation Wind Pressure Humidity
    00:00 +18°C° 0.1 mm 2 mps 664 mmHg 98%
    01:00 +19°C° 0 mm 2 mps 664 mmHg 98%
    02:00 +19°C° 0.1 mm 2 mps 664 mmHg 98%
    03:00 +19°C° 0.1 mm 2 mps 664 mmHg 98%
    04:00 +19°C° 0.1 mm 2 mps 664 mmHg 97%
    05:00 +19°C° 0 mm 2 mps 664 mmHg 97%
    06:00 +19°C° 0 mm 2 mps 664 mmHg 97%
    07:00 +19°C° 0 mm 2 mps 665 mmHg 97%
    08:00 +20°C° 0.2 mm 2 mps 665 mmHg 94%
    09:00 +20°C° 0.2 mm 2 mps 665 mmHg 91%
    10:00 +21°C° 0.2 mm 2 mps 665 mmHg 88%
    11:00 +23°C° 0.4 mm 2 mps 665 mmHg 85%
    12:00 +24°C° 0.4 mm 2 mps 664 mmHg 82%
    13:00 +24°C° 0.4 mm 2 mps 664 mmHg 79%
    14:00 +24°C° 0.6 mm 2 mps 663 mmHg 82%
    15:00 +24°C° 0.6 mm 3 mps 663 mmHg 84%
    16:00 +24°C° 0.6 mm 3 mps 662 mmHg 87%
    17:00 +23°C° 0.5 mm 2 mps 662 mmHg 90%
    18:00 +21°C° 0.5 mm 2 mps 663 mmHg 94%
    19:00 +19°C° 0.5 mm 2 mps 663 mmHg 97%
    20:00 +19°C° 0.1 mm 2 mps 663 mmHg 97%
    21:00 +19°C° 0.1 mm 2 mps 664 mmHg 98%
    22:00 +19°C° 0.1 mm 2 mps 664 mmHg 98%
    23:00 +19°C° 0.1 mm 2 mps 664 mmHg 98%

    Tomorrow, 20 January, Saturday

    Time Temperature Precipitation Wind Pressure Humidity
    00:00 +19°C° 0.1 mm 2 mps 664 mmHg 98%
    01:00 +18°C° 0.1 mm 2 mps 664 mmHg 98%
    02:00 +18°C° 0.1 mm 2 mps 664 mmHg 98%
    03:00 +18°C° 0.1 mm 2 mps 664 mmHg 98%
    04:00 +18°C° 0.1 mm 2 mps 663 mmHg 98%
    05:00 +18°C° 0.1 mm 2 mps 664 mmHg 98%
    06:00 +18°C° 0.1 mm 2 mps 664 mmHg 97%
    07:00 +18°C° 0.1 mm 2 mps 664 mmHg 97%
    08:00 +19°C° 0.2 mm 2 mps 664 mmHg 94%
    09:00 +20°C° 0.2 mm 2 mps 665 mmHg 91%
    10:00 +21°C° 0.2 mm 2 mps 665 mmHg 88%
    11:00 +23°C° 0.1 mm 2 mps 665 mmHg 80%
    12:00 +24°C° 0.1 mm 3 mps 665 mmHg 73%
    13:00 +26°C° 0.1 mm 3 mps 664 mmHg 66%
    14:00 +25°C° 0.3 mm 3 mps 664 mmHg 69%
    15:00 +25°C° 0.3 mm 3 mps 663 mmHg 73%
    16:00 +25°C° 0.3 mm 3 mps 663 mmHg 76%
    17:00 +22°C° 0.2 mm 3 mps 663 mmHg 82%
    18:00 +21°C° 0.2 mm 2 mps 663 mmHg 88%
    19:00 +19°C° 0.2 mm 2 mps 663 mmHg 94%
    20:00 +20°C° 0 mm 1 mps 664 mmHg 95%
    21:00 +19°C° 0 mm 1 mps 664 mmHg 96%
    22:00 +19°C° 0 mm 1 mps 665 mmHg 98%
    23:00 +19°C° 0 mm 1 mps 665 mmHg 98%

    Day after tomorrow, 21 January, Sunday

    Time Temperature Precipitation Wind Pressure Humidity
    00:00 +18°C° 0 mm 1 mps 664 mmHg 98%
    01:00 +18°C° 0 mm 1 mps 664 mmHg 99%
    02:00 +18°C° 0 mm 1 mps 664 mmHg 98%
    03:00 +18°C° 0 mm 1 mps 664 mmHg 98%
    04:00 +18°C° 0 mm 1 mps 664 mmHg 98%
    05:00 +19°C° 0 mm 1 mps 664 mmHg 98%
    06:00 +19°C° 0 mm 1 mps 665 mmHg 97%
    07:00 +19°C° 0 mm 1 mps 665 mmHg 96%
    08:00 +20°C° 0 mm 1 mps 666 mmHg 90%
    09:00 +21°C° 0 mm 2 mps 666 mmHg 84%
    10:00 +23°C° 0 mm 2 mps 667 mmHg 79%
    11:00 +24°C° 0.2 mm 2 mps 666 mmHg 74%
    12:00 +26°C° 0.2 mm 3 mps 666 mmHg 70%
    13:00 +27°C° 0.2 mm 3 mps 665 mmHg 66%
    14:00 +26°C° 0.8 mm 3 mps 664 mmHg 72%
    15:00 +25°C° 0.8 mm 3 mps 664 mmHg 78%
    16:00 +25°C° 0.8 mm 3 mps 663 mmHg 84%
    17:00 +23°C° 0.7 mm 2 mps 663 mmHg 88%
    18:00 +21°C° 0.7 mm 2 mps 664 mmHg 91%
    19:00 +19°C° 0.7 mm 2 mps 664 mmHg 95%
    20:00 +19°C° 1.1 mm 2 mps 665 mmHg 96%
    21:00 +20°C° 1.1 mm 1 mps 665 mmHg 97%
    22:00 +20°C° 1.1 mm 1 mps 666 mmHg 97%
    23:00 +20°C° 1 mm 1 mps 665 mmHg 98%

    22 January, Monday

    Time Temperature Precipitation Wind Pressure Humidity
    00:00 +19°C° 1 mm 1 mps 665 mmHg 98%
    01:00 +18°C° 1 mm 2 mps 665 mmHg 98%
    02:00 +18°C° 0.9 mm 2 mps 664 mmHg 98%
    03:00 +18°C° 0.9 mm 2 mps 664 mmHg 98%
    04:00 +18°C° 0.9 mm 2 mps 664 mmHg 98%
    05:00 +18°C° 0.7 mm 2 mps 665 mmHg 98%
    06:00 +19°C° 0.7 mm 1 mps 665 mmHg 98%
    07:00 +19°C° 0.7 mm 1 mps 665 mmHg 98%
    08:00 +20°C° 0.6 mm 1 mps 666 mmHg 95%
    09:00 +19°C° 0.6 mm 2 mps 666 mmHg 93%
    10:00 +20°C° 0.6 mm 2 mps 666 mmHg 91%
    11:00 +21°C° 0.2 mm 2 mps 666 mmHg 87%
    12:00 +23°C° 0.2 mm 2 mps 665 mmHg 84%
    13:00 +23°C° 0.2 mm 2 mps 664 mmHg 80%
    14:00 +24°C° 0.1 mm 3 mps 664 mmHg 79%
    15:00 +24°C° 0.1 mm 3 mps 663 mmHg 78%
    16:00 +25°C° 0.1 mm 3 mps 663 mmHg 76%
    17:00 +23°C° 0.6 mm 2 mps 663 mmHg 82%
    18:00 +21°C° 0.6 mm 2 mps 663 mmHg 88%
    19:00 +19°C° 0.6 mm 2 mps 663 mmHg 95%
    20:00 +19°C° 0.2 mm 2 mps 664 mmHg 95%
    21:00 +19°C° 0.2 mm 2 mps 665 mmHg 96%
    22:00 +20°C° 0.2 mm 1 mps 665 mmHg 96%
    23:00 +18°C° 0.1 mm 2 mps 665 mmHg 97%

    23 January, Tuesday

    Time Temperature Precipitation Wind Pressure Humidity
    00:00 +18°C° 0.1 mm 2 mps 664 mmHg 97%
    01:00 +18°C° 0.1 mm 2 mps 664 mmHg 98%
    02:00 +17°C° 0.1 mm 2 mps 664 mmHg 98%
    03:00 +18°C° 0.1 mm 1 mps 663 mmHg 98%
    04:00 +18°C° 0.1 mm 1 mps 663 mmHg 98%
    05:00 +17°C° 0 mm 2 mps 664 mmHg 98%
    06:00 +17°C° 0 mm 2 mps 664 mmHg 97%
    07:00 +18°C° 0 mm 2 mps 665 mmHg 97%
    08:00 +19°C° 0 mm 2 mps 665 mmHg 90%
    09:00 +21°C° 0 mm 2 mps 665 mmHg 83%
    10:00 +23°C° 0 mm 2 mps 665 mmHg 77%
    11:00 +24°C° 0.1 mm 2 mps 665 mmHg 71%
    12:00 +26°C° 0.1 mm 2 mps 664 mmHg 66%
    13:00 +27°C° 0.1 mm 3 mps 664 mmHg 60%
    14:00 +27°C° 0.3 mm 3 mps 664 mmHg 64%
    15:00 +26°C° 0.3 mm 3 mps 663 mmHg 67%
    16:00 +26°C° 0.3 mm 2 mps 663 mmHg 71%
    17:00 +24°C° 0.2 mm 2 mps 663 mmHg 77%
    18:00 +23°C° 0.2 mm 2 mps 663 mmHg 84%
    19:00 +21°C° 0.2 mm 1 mps 663 mmHg 90%
    20:00 +21°C° 0 mm 1 mps 663 mmHg 91%
    21:00 +20°C° 0 mm 1 mps 664 mmHg 92%
    22:00 +20°C° 0 mm 1 mps 664 mmHg 93%
    23:00 +19°C° 0 mm 1 mps 664 mmHg 94%

    24 January, Wednesday

    Time Temperature Precipitation Wind Pressure Humidity
    00:00 +19°C° 0 mm 1 mps 663 mmHg 95%
    01:00 +19°C° 0 mm 1 mps 663 mmHg 95%
    02:00 +19°C° 0.2 mm 1 mps 663 mmHg 96%
    03:00 +19°C° 0.2 mm 1 mps 663 mmHg 97%
    04:00 +19°C° 0.2 mm 1 mps 663 mmHg 98%
    05:00 +19°C° 0.3 mm 1 mps 664 mmHg 97%
    06:00 +19°C° 0.3 mm 1 mps 664 mmHg 96%
    07:00 +20°C° 0.3 mm 1 mps 665 mmHg 96%
    08:00 +20°C° 0.6 mm 2 mps 665 mmHg 92%
    09:00 +21°C° 0.6 mm 2 mps 665 mmHg 89%
    10:00 +23°C° 0.6 mm 2 mps 665 mmHg 86%
    11:00 +23°C° 0.4 mm 2 mps 665 mmHg 83%
    12:00 +24°C° 0.4 mm 2 mps 665 mmHg 79%
    13:00 +24°C° 0.4 mm 2 mps 664 mmHg 76%
    14:00 +24°C° 0.4 mm 2 mps 664 mmHg 78%
    15:00 +24°C° 0.4 mm 2 mps 663 mmHg 81%
    16:00 +24°C° 0.4 mm 1 mps 663 mmHg 83%
    17:00 +23°C° 0.1 mm 1 mps 663 mmHg 86%
    18:00 +21°C° 0.1 mm 1 mps 663 mmHg 89%
    19:00 +20°C° 0.1 mm 1 mps 663 mmHg 93%
    20:00 +20°C° 0 mm 1 mps 663 mmHg 93%
    21:00 +20°C° 0 mm 1 mps 664 mmHg 94%
    22:00 +19°C° 0 mm 1 mps 664 mmHg 95%
    23:00 +19°C° 0.3 mm 1 mps 664 mmHg 95%
    Show more